SCP
0 0 0 0 0 0 0 0 0 0 0 0 0 0 0 0 0 0 0 0 0 0 0 0 0 0 0 0 0 0 0 0 0 0 0 0 0 0 0 0 0 0 0 0 0 0 0 0 0
0 0 0 0 0 0 0 0 0 0 0 0 0 0 0 0 0 0 0 0 0 0 0 0 0 0 0 0 0 0 0 0 0 0 0 0 0 0 0 0 0 0 0 0 0 0 0 0 0
0 0 0 0 0 0 0 0 0 0 0 0 0 0 0 0 0 0 0 0 0 0 0 0 0 0 0 0 0 0 0 0 0 0 0 0 0 0 0 0 0 0 0 0 0 0 0 0 0
0 0 0 0 0 0 0 0 0 0 0 0 0 0 0 0 0 0 0 0 0 0 0 0 0 0 0 0 0 0 0 0 0 0 0 0 0 0 0 0 0 0 0 0 0 0 0 0 0
-0 -0 0 0 0 0 0 0 0 0 0 0 0 0 0 0 0 0 0 0 0 0 0 0 0 0 0 0 0 0 0 0 0 0 0 0 0 0 0 0 0 0 0 0 0 0 0 0 0
0 0 0 0 0 0 0 0 0 0 0 0 0 0 0 0 0 0 0 0 0 0 0 0 0 0 0 0 0 0 0 0 0 0 0 0 0 0 0 0 0 0 0 0 0 0 0 0 0
0 0 0 0 0 0 0 0 0 0 0 0 0 0 0 0 0 0 0 0 0 0 0 0 0 0 0 0 0 0 0 0 0 0 0 0 0 0 0 0 0 0 0 0 0 0 0 0 0
0 0 0 0 0 0 0 0 0 0 0 0 0 0 0 0 0 0 0 0 0 0 0 0 0 0 0 0 0 0 0 0 0 0 0 0 0 0 0 0 0 0 0 0 0 0 0 0 0
0 0 0 0 0 0 0 0 0 0 0 0 0 0 0 0 0 0 0 0 0 0 0 0 0 0 0 0 0 0 0 0 0 0 0 0 0 0 0 0 0 0 0 0 0 0 0 0 0
0 0 0 0 0 0 0 0 0 0 0 0 0 0 0 0 0 0 0 0 0 0 0 0 0 0 0 0 0 0 0 0 0 0 0 0 0 0 0 0 0 0 0 0 0 0 0 0 0
0 0 0 0 0 0 0 0 0 0 0 0 0 0 0 0 0 0 0 0 0 0 0 0 0 0 0 0 0 0 0 0 0 0 0 0 0 0 0 0 0 0 0 0 0 0 0 0 0
0 0 0 0 0 0 0 0 0 0 0 0 0 0 0 0 0 0 0 0 0 0 0 0 0 0 0 0 0 0 0 0 0 0 0 0 0 0 0 0 0 0 0 0 0 0 0 0 0
0 0 0 0 0 0 0 0 -0 0 0 0 0 0 0 0 0 0 0 0 0 0 0 0 0 0 0 0 0 0 0 0 0 0 0 0 0 0 0 0 0 0 0 0 0 0 0 0 0
0 0 0 0 0 0 0 0 0 0 0 0 0 0 0 0 0 0 0 0 0 0 0 0 0 0 0 0 0 0 0 0 0 0 0 0 0 0 0 0 0 0 0 0 0 0 0 0 0
0 0 0 0 0 0 0 0 0 0 0 0 0 0 0 0 0 0 0 0 0 0 0 0 0 0 0 0 0 0 0 0 0 0 0 0 0 0 0 0 0 0 0 0 0 0 0 0 0
0 0 0 0 0 0 0 0 0 0 0 0 0 0 0 0 0 0 0 0 0 0 0 0 0 0 0 0 0 0 0 0 0 0 0 0 0 0 0 0 0 0 0 0 0 0 0 0 0
0 0 0 0 0 0 0 0 0 0 0 0 0 0 0 0 0 0 0 0 0 0 0 0 0 0 0 0 0 0 0 0 0 0 0 0 0 0 0 0 0 0 0 0 0 0 0 0 0
0 0 0 0 0 0 0 0 0 0 0 0 0 0 0 0 0 0 0 0 0 0 0 0 0 0 0 0 0 0 0 0 0 0 0 0 0 0 0 0 0 0 0 0 0 0 0 0 0
-0 0 0 0 0 0 0 0 0 0 0 0 0 0 0 0 0 0 0 0 0 0 0 0 0 0 0 0 0 0 0 0 0 0 0 0 0 0 0 0 0 0 0 0 0 0 0 0 0
0 -0 -0 -0 0 0 0 0 0 0 0 0 0 0 0 0 0 0 0 0 0 0 0 0 0 0 0 0 0 0 0 0 0 0 0 0 0 0 0 0 0 0 0 0 0 0 0 0 0
0 0 -0 -0 0 0 0 0 0 0 0 0 0 0 0 0 0 0 0 0 0 0 0 0 0 0 0 0 0 0 0 0 0 0 0 0 0 0 0 0 0 0 0 0 0 0 0 0 0
0 0 0 0 0 0 0 0 0 0 0 0 0 0 0 0 0 0 0 0 0 0 0 0 0 0 0 0 0 0 0 0 0 0 0 0 0 0 0 0 0 0 0 0 0 0 0 0 0
0 0 0 0 0 0 0 0 0 0 0 0 0 0 0 0 0 0 0 0 0 0 0 0 0 0 0 0 0 0 0 0 0 0 0 0 0 0 0 0 0 0 0 0 0 0 0 0 0
0 0 0 0 0 0 0 0 0 0 0 0 0 0 0 0 0 0 0 0 0 0 0 0 0 0 0 0 0 0 0 0 0 0 0 0 0 0 0 0 0 0 0 0 0 0 0 0 0
0 0 0 0 0 0 0 0 0 0 0 0 0 0 0 0 0 0 0 0 0 0 0 0 0 0 0 0 0 0 0 0 0 0 0 0 0 0 0 0 0 0 0 0 0 0 0 0 0
0 0 0 0 0 0 0 0 0 -0 0 0 0 0 0 0 0 0 0 0 0 0 0 0 0 0 0 0 0 0 0 0 0 0 0 0 0 0 0 0 0 0 0 0 0 0 0 0 0
0 0 0 0 0 0 0 0 0 -0 -0 -0 0 0 0 0 0 0 0 0 0 0 0 0 0 0 0 0 0 0 0 0 0 0 0 0 0 0 0 0 0 0 0 0 0 0 0 0 0
0 0 0 0 0 0 0 0 0 0 0 0 0 0 0 0 0 0 0 0 0 0 0 0 0 0 0 0 0 0 0 0 0 0 0 0 0 0 0 0 0 0 0 0 0 0 0 0 0
-0 0 0 0 0 0 0 0 0 0 0 0 0 0 0 0 0 0 0 0 0 0 0 0 0 0 0 0 0 0 0 0 0 0 0 0 0 0 0 0 0 0 0 0 0 0 0 0 0
0 0 0 0 0 0 0 0 0 0 0 0 0 0 0 0 0 0 0 0 0 0 0 0 0 0 0 0 0 0 0 0 0 0 0 0 0 0 0 0 0 0 0 0 0 0 0 0 0
Wind_Speed
7 4 2 4 6 4 3 4 2 1 1 1 2 5 7 5 4 5 2 2 5 3 2 3 5 7 8 8 9 9 9 10 10 11 11 11 12 11 12 12 12 12 12 12 12 12 13 13 13
3 2 5 5 5 2 5 4 3 3 3 3 4 5 6 4 3 6 2 3 5 4 3 3 6 8 8 9 9 9 9 10 10 11 11 11 11 11 11 11 11 11 11 12 12 12 12 12 13
3 1 5 5 4 6 5 3 5 1 2 3 4 4 4 4 3 3 2 5 6 4 3 3 7 8 9 9 9 9 9 10 10 10 10 11 11 11 11 11 11 11 11 11 11 11 11 12 12
3 4 5 4 4 5 4 3 3 3 2 3 5 5 3 2 3 3 5 7 7 5 3 3 8 9 9 9 9 9 9 10 10 10 10 10 11 11 11 10 10 10 10 10 11 11 11 11 11
4 5 4 1 4 4 3 3 3 3 3 2 4 5 2 3 3 6 6 7 7 5 4 3 8 8 9 9 9 10 10 9 10 10 10 10 10 10 10 10 10 10 10 10 11 11 11 11 11
4 5 4 4 5 3 2 2 3 3 3 2 5 5 2 1 4 5 6 6 6 5 4 4 7 8 8 9 9 9 10 9 9 9 9 9 9 9 10 10 10 10 10 10 10 10 10 11 11
5 5 4 4 3 3 3 2 3 4 3 3 5 6 2 1 2 5 6 6 6 6 5 4 4 5 7 8 8 9 9 9 9 9 9 9 9 9 9 9 10 10 9 10 9 9 10 10 10
5 5 2 3 4 4 2 2 1 4 3 2 5 8 5 5 3 5 6 6 5 5 4 4 4 4 4 4 7 8 8 8 9 9 9 9 9 8 8 8 9 9 9 9 9 9 9 9 10
4 4 4 4 5 4 2 2 1 1 4 3 2 2 4 9 7 7 5 4 4 4 3 4 4 4 4 3 5 6 7 7 7 7 9 8 4 4 4 6 8 8 9 9 9 9 10 9 9
4 4 7 3 2 3 2 3 3 3 3 2 3 4 7 9 9 8 6 5 4 4 3 3 3 3 3 3 3 3 3 3 4 4 4 3 3 3 5 7 8 8 8 8 9 9 8 7 4
4 6 3 1 0 2 2 1 1 6 3 5 6 7 9 8 8 7 6 6 5 5 4 3 3 2 3 2 2 2 2 2 3 4 4 3 3 3 3 2 3 4 5 4 5 5 4 3 3
3 3 2 2 0 1 2 2 1 3 5 4 8 11 11 10 9 9 8 6 5 5 4 3 3 2 2 2 2 2 2 1 2 2 3 3 2 2 2 2 2 2 2 2 2 2 3 3 3
3 2 1 1 0 1 1 2 2 4 3 4 8 10 11 10 9 7 6 5 5 5 4 4 3 3 2 2 1 2 1 1 1 2 2 3 2 2 1 1 2 2 2 2 2 2 2 2 2
2 2 2 2 1 1 2 3 2 7 4 5 8 9 10 10 9 7 6 6 6 6 5 4 4 3 2 2 1 1 1 1 1 1 2 2 2 2 1 1 1 1 1 1 2 2 2 1 2
1 1 3 3 3 2 2 5 8 7 4 6 7 8 9 9 8 10 9 8 8 7 6 5 5 4 3 2 2 2 1 1 1 1 1 2 2 2 2 1 1 1 1 2 2 2 2 2 2
1 0 3 4 3 2 4 10 7 5 6 7 7 7 8 8 9 9 9 7 7 7 6 6 5 4 4 3 2 1 2 2 1 1 1 1 2 2 2 1 1 1 1 1 1 2 2 2 2
1 2 5 4 3 2 4 9 6 4 7 8 7 7 7 7 8 8 8 8 8 8 7 6 4 5 4 3 2 1 2 2 1 1 1 1 1 1 1 1 1 1 1 1 1 1 1 1 2
4 4 4 5 3 2 5 10 8 4 6 8 7 6 7 8 10 9 8 8 7 7 7 6 5 5 4 3 1 1 1 1 1 1 1 1 1 1 1 1 1 1 1 1 1 1 1 1 1
3 4 5 5 2 2 7 12 11 6 5 6 6 6 7 9 6 6 7 7 6 6 7 7 6 5 4 3 3 2 2 1 1 1 1 1 1 1 1 1 1 1 1 1 1 1 1 1 1
3 4 5 4 1 3 6 11 9 7 7 8 8 8 8 6 4 5 6 6 7 8 8 7 7 6 5 4 3 2 2 2 2 1 1 2 2 2 2 2 2 2 1 1 1 1 1 0 0
5 6 5 4 4 3 4 8 5 5 4 4 5 6 5 7 7 6 7 8 7 8 9 8 7 6 5 4 2 2 1 1 0 1 2 2 2 2 2 2 2 2 2 3 2 2 2 1 1
7 4 4 3 2 4 1 7 7 4 4 5 5 4 4 5 6 6 7 7 8 8 7 7 7 7 6 5 5 5 4 3 3 2 2 2 2 2 2 2 2 3 2 3 3 2 2 3 1
4 1 3 3 3 4 3 5 9 2 5 6 5 5 4 4 5 6 7 8 7 6 6 6 6 6 6 6 6 6 4 3 2 1 2 3 2 2 3 3 3 3 3 3 3 2 2 2 2
1 2 2 1 1 6 7 6 8 5 6 3 3 3 3 3 3 3 5 4 4 4 4 5 5 5 5 6 6 6 6 4 3 3 3 3 2 2 3 3 3 3 3 3 3 3 3 3 3
2 3 2 3 2 8 3 5 9 5 4 4 4 3 2 2 2 2 3 4 4 5 5 5 6 5 5 6 6 6 6 6 6 5 5 4 3 3 4 3 3 3 3 4 3 4 4 4 4
4 5 5 5 5 5 3 8 7 3 1 0 1 1 2 2 2 2 3 3 4 5 5 5 5 5 5 5 5 5 5 4 4 5 4 5 4 4 4 4 3 3 4 4 4 3 4 3 4
3 4 3 3 2 4 7 6 7 1 2 2 2 2 2 3 2 2 1 1 2 3 4 5 5 5 5 5 5 5 5 5 5 5 4 4 4 3 4 4 4 3 4 4 4 4 4 4 4
2 3 3 3 3 6 6 5 5 4 3 2 2 2 3 3 3 2 1 1 1 2 2 3 4 5 4 4 5 4 5 5 4 4 5 5 4 4 4 4 4 4 4 4 4 4 4 4 4
2 2 3 3 3 4 5 7 3 3 3 3 3 3 3 3 3 3 2 2 2 1 1 2 3 3 4 4 4 4 4 4 4 5 5 5 4 5 5 5 5 5 4 4 4 5 5 5 5
3 5 5 4 5 4 4 8 3 1 1 0 2 3 3 3 3 3 3 3 2 2 2 2 3 3 4 4 4 4 4 4 4 5 5 5 5 5 5 5 4 5 5 4 5 6 5 6 6
Wind_Direction
333 341 70 59 61 60 227 244 219 178 134 98 78 99 110 108 127 149 150 126 115 120 102 98 92 88 89 94 91 90 88 86 85 84 83 81 80 79 77 75 75 74 73 74 75 75 75 74 74
338 8 60 63 98 161 251 239 211 223 180 134 75 78 85 81 68 108 131 135 120 116 101 97 94 92 90 92 93 92 91 90 88 87 84 83 81 80 79 77 77 76 75 75 75 73 73 73 73
331 64 85 84 135 189 220 222 195 182 90 119 88 56 90 119 119 139 154 130 111 101 85 95 97 94 91 89 90 93 93 92 91 90 88 87 84 81 79 76 76 76 77 76 74 73 72 71 71
58 53 61 91 202 227 213 205 175 143 73 70 111 87 69 43 144 143 124 117 108 94 78 97 99 96 93 91 89 91 92 91 91 90 89 88 84 81 78 76 75 76 80 80 78 76 71 69 68
64 82 87 160 232 245 240 212 166 156 154 105 111 114 95 359 96 111 111 114 112 99 78 94 102 99 95 91 89 89 87 88 88 88 87 86 85 82 78 78 77 76 80 83 81 78 73 70 68
65 77 116 211 234 243 246 206 155 149 151 122 115 120 136 75 105 114 110 107 109 103 84 82 99 96 94 92 89 86 84 83 85 85 85 83 83 82 80 78 78 80 83 85 84 79 75 71 68
113 118 174 196 213 239 233 178 154 152 158 180 143 127 145 196 147 120 110 104 100 95 84 71 73 81 86 88 88 86 82 80 81 81 82 81 79 79 81 78 77 78 81 82 83 82 78 74 71
130 121 183 206 199 230 218 150 141 146 170 125 120 143 184 198 160 116 108 103 98 92 87 80 69 64 63 73 85 83 80 75 74 75 74 76 74 72 73 74 78 79 77 77 79 79 79 73 70
98 97 207 212 194 216 180 135 75 74 103 79 72 141 161 144 133 114 102 92 100 98 88 88 81 71 64 67 81 80 81 74 67 69 71 71 60 55 56 59 71 77 77 77 76 74 72 66 63
99 168 219 215 193 183 169 157 157 117 107 101 63 58 113 133 139 140 142 145 141 134 121 107 98 91 82 76 67 60 68 67 59 58 67 66 60 56 56 55 60 63 69 72 72 69 66 57 45
147 192 212 225 215 162 153 149 150 140 193 200 177 154 142 144 151 158 162 165 164 157 142 127 117 110 103 89 83 59 61 63 60 62 66 67 60 53 49 48 44 42 49 51 59 59 48 48 46
161 226 203 220 249 158 175 162 168 187 213 181 159 154 154 161 171 176 175 174 166 160 157 146 132 120 116 111 104 90 78 76 73 70 74 80 72 56 50 50 45 41 35 39 48 57 53 54 51
204 230 212 220 119 144 142 199 199 239 223 132 135 148 166 174 181 185 178 172 169 171 169 164 150 137 124 118 122 109 99 95 91 79 77 86 97 85 65 53 46 36 41 52 50 52 58 59 54
197 198 240 252 242 230 189 240 211 241 182 147 155 170 181 184 185 182 182 182 183 182 178 172 160 150 131 128 135 134 125 116 100 86 84 90 105 107 97 71 48 31 34 48 64 55 57 59 56
110 60 304 252 216 216 154 267 233 227 168 171 183 186 189 194 188 191 192 189 187 185 179 175 165 153 148 146 154 140 137 123 110 102 102 93 92 115 113 97 68 24 27 48 60 53 53 52 47
69 33 272 263 184 186 165 252 247 198 177 200 201 198 197 202 201 201 195 188 183 178 177 180 173 160 162 160 160 152 142 134 130 123 129 115 96 113 126 116 103 46 52 57 71 66 57 44 29
28 235 247 274 207 166 193 248 257 201 190 212 212 210 208 211 212 207 196 188 181 180 178 179 174 167 167 163 161 158 150 153 148 142 141 148 116 105 121 136 142 103 85 63 72 64 74 69 32
214 224 244 247 244 186 229 254 264 239 212 223 222 218 214 216 219 207 196 188 180 178 177 176 173 173 163 151 137 123 136 158 154 164 174 154 145 125 115 136 134 125 106 82 67 69 64 111 72
189 213 247 256 260 232 244 259 263 247 232 236 231 221 219 223 219 198 189 181 172 171 173 175 173 175 163 160 165 171 192 194 194 201 197 183 166 166 152 144 149 138 143 147 115 99 82 60 64
231 248 259 285 290 252 269 271 265 238 222 222 225 229 228 221 206 194 185 181 182 182 183 182 181 177 178 179 179 178 177 202 201 200 207 203 193 190 182 174 179 171 153 146 143 108 93 360 83
240 230 240 259 315 304 304 295 265 255 231 239 235 225 218 210 204 196 189 191 189 190 189 189 187 183 182 175 158 137 93 67 189 213 216 224 213 205 202 192 191 184 176 186 198 172 157 177 281
245 238 238 250 271 272 230 280 274 257 265 252 247 238 227 220 207 197 191 193 195 197 191 190 186 183 181 172 173 176 186 202 215 215 215 224 216 214 214 204 207 201 195 195 207 200 186 168 203
227 247 247 252 229 273 243 243 275 255 257 254 244 239 234 224 208 202 197 197 197 189 186 188 182 183 181 180 184 190 203 215 213 208 216 218 222 218 216 209 209 213 205 204 203 205 206 190 193
161 28 353 17 102 260 228 210 270 234 230 249 255 242 237 230 219 216 203 187 187 180 177 178 178 185 184 186 189 195 202 202 201 210 217 221 227 227 218 215 213 222 215 208 209 205 207 210 203
88 95 4 333 298 250 223 216 251 255 244 216 218 246 263 248 224 222 207 191 186 183 182 180 180 190 191 192 197 201 203 202 206 209 214 220 222 229 223 220 217 221 223 216 208 205 209 211 208
204 169 183 221 239 275 268 234 250 277 299 225 194 270 335 323 275 244 227 208 198 192 188 185 189 198 196 199 206 206 205 205 214 215 213 217 224 226 224 221 221 225 223 221 213 213 214 214 216
174 209 198 170 249 270 261 273 295 327 7 17 14 9 339 324 318 293 277 236 218 199 196 193 195 204 205 206 208 209 205 209 218 219 216 218 222 231 223 219 219 224 227 220 211 218 218 215 221
169 164 117 162 218 255 275 264 261 273 273 297 307 310 317 333 334 331 317 293 270 231 208 199 202 208 212 211 211 217 213 214 217 218 220 221 222 223 222 224 222 222 229 226 215 221 219 217 225
153 173 177 183 206 210 265 266 248 232 229 244 276 295 305 317 319 321 323 326 311 290 232 219 219 218 216 216 219 221 217 217 216 221 226 224 223 219 218 222 223 222 228 228 220 224 216 218 226
185 194 171 190 232 215 240 269 314 311 303 241 287 302 319 324 329 330 330 329 310 280 252 238 233 228 227 220 219 223 219 215 217 224 229 224 224 224 222 219 224 226 227 227 223 224 221 219 222